Temp
17 17 17 17 17 17 17 17 18 18 17 17 17 17 17 17 16 16 16 16 16 16 15 15 15 15 15 15 16 15 15 16 16 16 16 16 16 16 16 16 16 16
17 17 17 17 17 17 17 17 17 18 18 17 17 17 17 17 16 16 16 16 16 16 16 15 15 15 15 15 16 16 16 16 16 16 16 16 16 16 16 16 16 16
17 17 17 17 17 17 17 17 17 17 17 17 16 16 16 16 16 16 16 16 16 15 16 16 16 15 15 15 16 16 16 16 16 16 16 16 16 16 16 16 16 16
17 17 17 17 17 17 17 17 17 17 17 17 16 16 16 15 16 16 16 16 16 16 16 16 16 16 16 16 16 16 16 16 16 16 16 16 16 16 16 16 16 16
17 17 17 17 16 16 16 16 17 17 17 16 16 15 15 15 15 16 16 16 15 16 16 16 16 16 16 16 16 16 16 16 16 16 16 16 16 16 17 16 16 16
17 17 16 16 16 16 16 16 16 17 16 16 16 15 15 15 15 15 16 16 16 16 16 16 16 16 16 16 16 16 16 17 16 16 16 16 16 16 17 17 16 16
16 16 16 16 16 16 16 16 16 16 16 16 15 15 15 15 15 15 15 15 16 16 16 16 16 16 16 16 16 16 17 17 16 16 17 17 16 17 18 18 17 16
16 16 16 16 16 16 16 15 15 16 15 15 15 16 16 16 16 15 15 16 16 16 16 17 16 16 16 16 16 16 17 17 17 16 17 17 18 18 19 18 18 18
15 15 15 15 15 15 15 15 15 15 15 15 16 16 16 16 16 16 16 16 16 16 16 17 17 17 16 16 16 17 17 17 17 17 17 18 18 18 18 18 18 19
15 15 14 14 15 15 15 15 15 15 15 16 16 16 15 16 16 16 16 16 16 16 16 16 16 17 16 16 17 17 17 17 17 17 17 18 18 18 18 18 18 19
14 14 14 14 15 15 15 15 15 15 15 15 15 15 15 15 16 16 16 16 16 16 16 16 16 16 16 17 17 17 18 18 18 19 18 18 18 18 18 18 18 18
13 14 14 14 14 15 15 15 15 15 15 15 15 15 15 15 15 15 15 15 15 15 16 16 16 16 17 17 18 18 18 19 19 19 19 18 18 18 18 18 18 18
13 13 14 14 14 14 14 15 15 15 15 15 15 15 16 16 16 15 15 15 15 15 16 17 16 17 18 18 18 18 18 18 19 18 18 18 18 18 18 18 18 18
12 13 14 14 14 14 14 15 15 15 15 15 15 15 16 16 16 16 15 15 15 15 16 16 17 17 18 18 18 19 18 18 18 18 18 18 18 18 18 18 18 18
12 13 14 13 13 14 14 14 14 14 14 14 14 15 15 15 15 15 15 15 15 16 15 16 17 17 17 18 18 19 19 18 18 18 18 18 18 18 18 18 18 17
12 12 13 13 13 13 13 13 13 13 14 14 14 14 14 14 14 14 14 14 15 15 15 15 17 17 17 17 18 18 18 18 18 18 18 18 18 18 18 17 17 17
12 12 12 13 13 13 13 13 13 13 13 13 13 13 13 13 13 13 14 14 14 15 15 15 17 17 17 17 17 18 18 18 18 18 18 18 18 18 18 17 16 16
11 11 11 11 11 12 12 12 12 12 12 12 12 12 13 13 13 13 13 14 14 14 14 16 17 17 17 17 17 17 17 18 18 18 18 18 18 18 18 17 16 16
11 10 10 9 10 10 10 10 10 11 11 11 11 12 12 12 12 13 13 13 13 13 14 15 16 17 17 17 17 17 17 18 18 18 18 18 18 18 17 17 17 16
11 10 9 8 9 9 9 9 9 9 10 10 11 11 11 12 12 12 12 13 13 13 14 15 16 16 17 17 17 17 17 17 18 18 18 17 17 17 17 16 16 16
10 9 8 8 8 8 8 8 8 8 8 9 10 10 11 11 12 12 12 13 13 13 13 14 14 15 16 16 16 16 16 16 16 16 17 16 16 15 15 15 15 16
10 9 8 7 8 8 8 8 7 8 7 8 9 9 9 11 12 12 11 12 13 12 12 12 13 14 14 15 15 15 15 16 15 15 15 15 14 14 14 14 14 14
9 9 8 7 7 7 7 7 7 7 7 7 7 8 8 9 10 10 9 10 12 11 10 10 12 13 13 13 13 13 14 15 14 14 13 13 12 13 13 13 13 13
9 9 8 7 7 7 7 7 7 7 7 6 6 6 7 7 8 9 9 10 10 9 9 9 10 11 12 12 12 13 13 13 13 13 12 11 11 12 12 12 12 13
8 8 8 8 7 7 6 6 7 7 6 6 6 6 6 6 7 8 8 9 8 8 9 9 9 10 11 12 12 12 13 13 13 13 12 12 12 11 11 12 13 13
8 8 8 8 7 6 7 7 7 6 6 6 6 5 5 5 6 7 8 8 7 8 8 8 9 9 10 11 12 12 12 12 12 12 12 11 11 11 11 12 12 12
Height
805 804 803 801 800 799 798 797 796 795 795 795 796 796 796 796 795 796 798 800 800 802 803 804 806 808 810 811 813 814 814 814 815 817 818 820 822 824 826 828 829 830
803 802 801 799 798 796 795 794 793 793 793 793 793 793 794 793 793 793 796 798 799 800 802 803 804 806 808 809 811 812 812 813 814 816 817 819 821 823 824 826 828 829
802 800 799 797 796 794 793 792 791 791 791 790 790 790 790 790 789 790 792 795 797 799 800 802 803 804 806 807 809 809 810 811 813 815 817 818 819 821 823 824 826 827
801 799 797 796 794 793 793 791 790 790 789 788 787 786 787 787 786 788 789 792 796 798 800 801 802 803 804 805 807 808 809 811 813 815 817 817 818 820 822 823 824 825
800 798 796 795 793 792 791 790 789 789 789 788 786 785 786 786 786 787 787 790 794 797 799 801 803 803 803 804 805 806 808 810 812 814 815 815 817 819 820 822 823 824
799 797 795 794 792 791 790 789 788 789 789 788 786 786 786 785 786 787 788 790 793 796 799 801 802 802 802 802 804 805 807 809 810 812 812 814 817 818 818 820 821 822
798 796 794 793 791 790 789 788 788 788 788 787 786 786 786 785 786 788 790 792 795 798 800 800 802 802 802 802 803 804 805 807 808 810 811 813 815 816 817 818 820 821
798 796 794 793 791 789 788 787 788 788 788 787 786 787 787 787 787 789 791 794 797 799 800 799 800 802 801 801 802 803 804 805 807 808 810 811 813 814 815 817 818 820
798 796 795 793 790 789 788 787 788 788 788 787 787 787 788 787 787 788 791 794 797 799 799 799 800 800 800 800 801 802 803 804 806 807 809 810 812 813 815 816 817 818
798 796 795 793 790 789 788 788 788 788 788 787 787 788 788 788 787 788 791 794 797 797 797 798 799 799 799 800 801 801 802 804 806 807 808 809 811 812 814 815 816 817
798 797 795 793 791 789 788 788 788 788 788 788 788 789 789 789 788 790 792 796 798 797 796 797 798 799 799 800 801 802 802 804 805 806 807 808 810 811 812 813 815 816
799 797 795 794 792 790 789 789 789 789 789 788 788 789 790 790 790 792 794 796 797 798 798 797 798 799 800 801 802 802 803 804 804 805 807 808 809 810 812 813 814 816
799 798 796 794 792 791 790 789 789 789 789 789 789 789 790 791 792 793 794 795 797 798 798 797 798 800 801 801 802 803 804 804 804 806 807 808 810 811 812 813 814 816
800 799 796 795 793 792 791 789 788 788 788 788 788 789 790 791 792 793 794 795 796 798 799 798 799 801 801 801 803 803 804 804 805 806 808 809 811 812 813 814 815 817
802 800 797 796 794 793 791 790 789 789 788 789 789 789 791 791 792 793 795 796 795 797 799 800 800 801 801 802 803 803 804 805 806 807 809 810 811 812 814 815 816 817
803 801 799 797 796 794 793 791 791 790 790 791 791 791 791 791 792 793 796 799 798 797 800 801 800 801 802 803 804 804 804 806 807 808 809 810 811 813 814 815 816 817
805 803 801 799 797 796 795 793 793 792 792 793 793 793 792 792 792 794 796 800 800 799 801 802 801 801 803 803 804 805 806 806 807 808 809 810 812 813 814 815 816 817
807 805 803 801 799 798 797 796 795 794 794 794 795 795 794 793 794 795 797 800 801 802 802 802 801 802 804 804 805 806 807 807 808 809 809 810 811 812 814 815 816 817
809 807 805 804 802 801 799 798 797 796 796 796 796 796 795 795 796 797 799 800 801 803 803 801 802 803 804 805 806 806 807 807 808 808 809 810 811 813 814 815 816 817
811 810 808 807 805 804 802 801 801 800 799 798 798 798 798 798 799 799 800 801 802 803 803 802 803 804 805 806 806 806 807 807 808 809 810 811 812 813 814 816 817 818
814 812 811 810 809 807 806 805 805 804 803 802 802 802 802 801 801 802 803 803 803 804 804 804 804 805 806 806 807 807 808 808 809 809 810 811 812 814 815 817 819 820
817 816 814 813 813 811 810 810 809 808 807 807 806 805 805 804 803 804 805 805 805 806 806 806 806 806 807 808 808 809 809 809 810 811 812 813 813 815 816 817 819 821
820 819 817 817 816 815 815 814 813 812 811 811 810 809 808 807 806 807 808 807 807 808 809 808 807 808 809 810 811 811 811 811 811 812 813 813 814 814 816 817 818 820
824 822 821 820 819 818 818 818 817 817 816 815 814 813 812 811 811 810 810 809 809 811 811 810 810 810 811 812 813 814 813 813 813 814 814 815 816 816 817 819 821 821
827 826 824 823 822 821 821 821 821 820 820 819 818 817 815 815 814 814 813 813 814 814 814 813 813 814 814 815 815 816 815 816 816 817 817 818 819 819 820 821 823 824
830 829 828 826 826 825 824 824 824 824 823 822 821 821 819 818 818 817 816 817 818 818 818 817 817 817 817 817 817 817 818 819 820 820 820 821 822 822 823 823 824 827
Wind_Speed
11 13 13 14 14 14 14 15 15 15 13 12 12 11 11 9 8 10 13 16 18 18 18 18 18 19 19 18 18 17 16 15 15 14 15 17 18 17 18 18 16 15
11 12 14 15 15 15 16 16 16 15 14 12 11 11 11 9 8 10 12 14 16 17 19 20 19 20 19 18 18 17 16 15 15 15 14 15 17 18 18 17 15 14
10 12 13 15 17 17 16 15 15 15 14 13 11 11 11 10 10 11 11 13 15 16 18 19 19 19 18 18 18 18 17 16 16 15 13 14 16 16 15 14 14 13
10 11 13 15 16 15 14 15 15 15 15 13 12 11 11 10 12 13 12 12 13 15 17 18 18 17 18 18 17 16 16 17 18 17 16 17 17 15 15 15 15 13
10 11 12 14 15 14 14 16 16 15 14 13 12 11 11 9 10 13 14 13 13 14 16 17 17 17 18 18 16 15 16 17 17 17 18 18 17 17 17 16 14 13
10 10 11 13 13 12 13 15 15 14 13 12 11 10 9 8 7 10 12 12 13 14 16 17 16 17 17 17 17 16 17 16 15 17 18 17 16 17 17 16 14 15
11 11 11 11 11 10 11 12 11 12 12 11 11 10 9 8 6 6 8 10 13 14 15 16 16 16 16 16 17 16 15 15 14 15 17 16 15 15 15 14 14 15
11 11 11 11 10 8 8 8 8 8 9 10 10 10 9 7 7 6 6 8 12 12 12 14 15 16 16 17 16 14 13 15 15 15 15 14 13 13 13 12 12 13
11 11 11 11 10 7 6 6 6 7 7 8 9 10 9 8 9 8 6 8 12 13 14 13 13 14 15 14 15 14 14 14 16 16 15 14 13 13 13 13 12 12
11 10 10 11 10 7 6 6 6 7 6 7 9 9 9 9 11 10 9 12 13 14 15 14 12 13 13 13 14 15 15 14 14 15 14 14 13 13 13 13 12 12
12 10 9 10 10 8 6 6 6 7 6 7 8 8 8 9 10 11 13 15 15 13 14 16 15 13 13 13 14 15 14 13 12 12 12 12 11 11 12 11 11 11
12 11 10 9 9 9 8 6 6 6 6 6 6 7 7 8 8 9 11 14 14 15 15 15 13 12 11 12 13 12 11 11 10 9 10 10 10 10 10 10 11 11
12 11 11 10 9 9 9 8 6 6 5 4 5 6 6 6 6 8 8 9 10 13 14 13 11 11 11 10 11 10 9 9 9 9 10 10 9 9 9 9 10 10
13 11 11 11 10 9 8 7 7 5 4 4 5 5 5 4 4 5 6 6 8 9 11 12 11 10 9 9 9 9 8 8 9 10 11 10 9 9 9 9 9 9
14 13 12 12 11 10 8 7 7 5 3 3 4 3 3 4 4 4 4 7 12 11 8 8 9 8 8 9 9 8 9 9 10 11 11 10 10 10 9 9 9 9
16 15 13 12 12 11 9 8 8 6 4 3 1 0 2 5 6 5 3 4 9 12 8 7 9 9 9 10 9 9 10 10 11 11 10 10 10 10 10 9 9 10
18 17 15 14 13 11 10 10 9 7 5 4 3 2 3 5 7 7 7 4 4 7 6 8 9 9 9 11 11 10 10 10 10 10 10 10 10 9 10 9 9 10
19 18 17 16 14 13 12 12 11 8 7 7 6 4 5 6 8 9 10 8 5 5 6 7 8 9 9 10 11 10 10 10 9 9 9 10 10 10 10 10 10 11
19 18 18 17 16 14 13 14 13 11 9 9 9 8 8 8 10 11 11 9 6 6 6 6 8 10 10 10 9 8 9 9 8 8 9 9 9 9 9 10 12 13
19 18 18 18 17 15 15 16 16 15 13 11 10 11 13 13 13 14 13 11 9 8 6 7 8 10 10 9 7 6 7 7 7 7 9 9 8 8 9 10 11 13
19 18 17 17 17 16 16 16 15 16 15 14 14 14 16 16 16 15 14 13 12 11 9 9 8 8 8 6 6 7 7 7 6 7 8 9 10 10 10 9 9 9
18 18 17 17 16 16 16 16 16 15 15 16 16 16 17 18 17 16 16 14 13 12 12 12 11 8 6 5 6 8 8 7 8 9 9 10 12 13 11 11 10 9
18 18 17 16 16 17 17 16 15 15 14 14 16 17 18 19 19 18 18 17 15 15 15 15 13 11 8 7 7 9 8 8 9 11 10 10 12 13 12 12 13 13
18 18 18 17 16 16 16 16 16 15 13 13 14 16 19 21 22 22 21 21 19 17 17 18 17 14 11 9 7 7 8 9 9 10 11 11 11 12 12 11 12 13
18 18 19 19 18 16 15 15 15 15 14 14 15 17 18 21 24 25 25 24 22 20 19 20 19 17 15 14 11 9 10 12 12 13 15 16 15 14 15 15 13 12
18 19 20 21 20 19 20 20 18 16 16 16 17 18 20 24 26 27 28 26 25 23 23 22 20 18 17 17 15 14 13 12 12 13 14 16 16 14 13 14 13 10
Wind_Direction
276 268 260 253 247 241 239 239 239 239 241 244 245 247 249 250 251 250 246 235 224 217 214 206 198 199 198 191 194 200 197 196 200 205 208 209 213 217 221 226 222 215
281 273 265 259 252 243 237 235 236 239 242 240 234 235 241 243 242 241 242 236 223 211 206 201 198 200 198 193 194 196 197 200 205 211 213 209 210 214 219 222 217 211
289 277 268 262 257 252 244 238 236 237 238 232 222 222 228 230 227 220 219 225 218 204 200 202 202 198 191 188 190 192 197 201 204 208 209 205 204 206 208 211 212 209
303 290 278 270 266 262 254 246 240 236 234 224 212 211 215 224 226 209 194 203 209 201 200 203 200 193 185 183 185 189 195 200 202 200 199 201 202 200 201 202 206 209
311 303 291 281 277 274 266 258 247 240 237 224 211 210 212 217 223 206 189 189 199 201 201 199 195 191 186 182 182 188 190 190 194 194 192 198 199 196 198 197 196 201
311 308 302 291 282 276 271 266 255 247 242 227 214 213 211 207 212 208 191 183 191 201 201 196 191 191 191 186 183 188 187 182 187 190 188 193 195 191 192 193 191 194
311 310 309 303 291 280 272 267 259 250 239 224 217 213 211 204 195 202 195 182 191 203 203 197 191 189 190 190 187 188 185 176 179 186 186 191 195 189 187 189 189 190
315 310 309 308 300 291 280 268 263 255 235 221 218 213 209 198 180 188 204 198 201 209 209 203 198 193 190 189 186 183 179 175 177 184 186 192 196 190 186 186 186 188
323 313 308 308 304 303 297 278 270 262 238 221 217 211 201 188 178 179 198 212 216 219 218 210 202 199 194 188 183 177 173 175 180 186 189 191 192 188 183 182 181 184
333 323 314 312 309 309 310 295 282 270 248 226 217 206 192 178 171 170 188 208 213 214 219 216 206 202 195 186 181 175 171 175 179 183 188 189 187 183 179 177 177 181
341 336 326 320 317 319 319 305 289 278 260 234 219 208 192 180 174 177 192 203 198 191 204 209 202 199 191 181 178 174 173 176 177 180 186 188 184 179 176 173 173 178
347 345 341 335 331 332 331 320 302 292 276 243 221 213 202 190 185 186 194 199 189 180 190 198 193 190 187 181 177 175 175 175 175 179 182 183 182 175 172 173 171 176
349 350 352 350 346 345 342 337 330 319 303 270 233 218 212 205 201 198 194 189 179 176 180 179 180 187 187 182 181 178 180 179 175 177 176 174 174 168 166 170 171 174
352 352 357 357 356 355 349 343 340 337 316 276 246 231 224 216 203 194 185 168 156 167 175 168 173 188 182 181 189 185 182 181 176 175 172 167 167 165 165 167 167 172
360 359 360 359 1 0 355 350 352 354 338 283 256 248 217 190 177 163 174 178 164 164 175 166 162 175 180 185 194 187 179 178 175 173 169 165 167 167 165 163 158 161
9 8 6 6 9 7 0 359 5 8 359 342 333 311 179 186 189 168 165 206 177 166 182 193 173 176 189 191 189 183 179 176 174 174 172 170 172 171 167 161 155 164
14 12 11 14 17 16 13 12 18 27 25 29 63 103 161 178 184 169 154 164 169 160 187 210 195 190 194 186 180 179 178 176 176 177 175 175 177 176 170 160 153 162
17 15 15 17 20 23 25 25 28 37 43 47 70 112 156 157 154 159 162 163 162 170 194 203 190 186 184 178 179 182 183 183 182 179 179 180 179 178 172 162 152 148
19 19 18 19 25 29 36 41 42 45 50 56 76 108 129 128 124 133 152 161 152 156 173 173 170 174 175 173 178 186 187 187 184 180 180 179 177 174 170 166 158 146
23 23 22 23 27 31 40 49 52 53 59 67 84 103 110 111 110 112 123 131 123 118 128 138 149 161 166 168 174 177 175 174 171 170 167 163 161 158 155 156 153 144
25 27 27 27 28 31 38 45 50 52 57 68 84 94 99 105 106 101 103 110 108 101 102 107 119 138 150 160 169 162 150 138 132 137 138 133 127 123 121 123 125 129
29 30 32 33 34 36 39 41 44 49 52 61 75 83 88 97 102 96 91 96 101 98 94 94 99 108 117 128 144 146 136 119 111 114 113 111 114 114 117 121 118 116
32 34 36 38 39 41 42 41 41 44 47 51 61 67 70 78 87 88 85 87 93 92 86 86 90 94 100 114 128 127 116 105 112 121 119 115 121 132 141 141 132 127
38 39 39 40 42 45 47 47 46 47 47 47 54 59 63 70 77 80 80 80 83 84 82 82 84 88 96 107 116 113 101 92 100 114 110 98 102 116 120 115 115 122
44 47 47 48 49 50 50 49 49 51 52 53 57 60 63 70 74 77 78 77 77 79 80 80 81 86 94 97 97 96 94 87 86 92 94 91 92 95 97 100 102 104
50 54 56 57 56 59 63 62 58 56 57 60 60 60 64 69 72 75 77 76 73 75 76 74 74 79 86 91 92 89 87 86 87 87 90 94 96 91 88 96 102 99